DELTA 1 R/B(1)

Satellite information

Favourite Embed

Satellite Type and Status

ROCKET BODYIN ORBIT

Key statistics

Satellite DELTA 1 R/B(1) at a glance.

Uptime

17491

Days in orbit

Revolutions

≈ 13.4

Per day

Orbit

LEO

Low Earth Orbit

Inclination

28.4

Latest

Satellite identification and parameters

Extended collection of information and parameters for DELTA 1 R/B(1).

Object identification

Identified? True

Debris? False

Object name: DELTA 1 R/B(1)

International designator: 1977-048B

Object number (NORAD): 10062

Object ID (CCSDS): 10062

Country: UNITED STATES OF AMERICA (US)

Current information (Y/N): Y

RCS size: LARGE

Orbital parameters

Period: 107.573 minutes

Inclination: 28.423 deg

SMA: 7492.526 km

Apoapsis: 1660.123 km

Periapsis: 568.658 km

RAAN: 347.6926 deg

Eccentricy: 0.0728369

Argument of periapsis: 251.392 deg

Mean anomaly: 100.621 deg

Mean motion: 13.38629511 rev/day

Mean motion (dot): 0.00000417 rev/day2

B* drag term: 0.00011162 1/REarth

Two-line elements (TLE)

Creation date: May 6, 2025, 3:54 a.m.

Reference frame: TEME

Reference center: EARTH

Epoch: May 5, 2025, 10:33 p.m. UTC

TLE line 0: 0 DELTA 1 R/B(1)

TLE line 1: 1 10062U 77048B 25125.94011904 .00000417 00000-0 11162-3 0 9994

TLE line 2: 2 10062 28.4230 347.6926 0728369 251.3920 100.6210 13.38629511332405

Live tracking on map

Real-time ground track for satellite DELTA 1 R/B(1).

In-orbit conjunctions

A list of the most updated potential collisions computed for object DELTA 1 R/B(1).

Target Orbit TCA Probability of collision Miss distance Type
FENGYUN 1C DEB SSO 2025-05-02 05:54:59 0.000157874 627.0 (m) DEBRIS
FENGYUN 1C DEB SSO 2024-10-08 18:43:20 0.0002832922 922.0 (m) DEBRIS

Associated space launch

Geostationary meteorological satellite

DELTA 1 R/B(1) was lifted into orbit during the mission ‘Delta 2914 | GOES 2’, on board a Delta 2914 space rocket.

The launch took place on June 16, 1977, 10:51 a.m. from Space Launch Complex 17B.

For more information about the launch, click the button.

Launch to space Delta 2914 | GOES 2
Delta 2914 | GOES 2

Agency: N/A

Status: Launch Successful

Launch date: June 16, 1977, 10:51 a.m. UTC

Rocket: Delta 2914

Launch pad: Space Launch Complex 17B

Location: Cape Canaveral SFS, FL, USA

...

Latest news about this satellite

There are no fresh news available about this satellite. Check back as we update our databases every day.


Newsletter sign-up

Weekly statistics, charts and insights to help you stay on top of the space industry.